Terminal Aerodrome Forecast
Issued by NWS

Home | Current Version | Previous Version | Text Only | Print | Product List | Glossary On
Versions: 1 2 3 4 5 6 7 8 9 10 11 12 13 14 15 16 17 18 19 20 21 22 23 24 25 26 27 28 29 30 31 32 33 34 35 36 37 38 39 40 41 42 43 44 45 46 47 48 49 50
000
FTUS46 KEKA 021100 RRA
TAFACV
TAF
KACV 021141Z 0212/0312 VRB03KT P6SM FEW002
      TEMPO 0214/0217 4SM BR
     FM021800 30008KT P6SM SCT005
     FM022100 32010KT P6SM FEW008
     FM030600 14005KT 6SM BR SCT005
     FM031000 14003KT 4SM BR BKN003=

USA.gov is the U.S. government's official web portal to all federal, state and local government web resources and services.